Weather History for Decatur, TX

Change the Weather History Date:

Thursday, October 24, 2013

  Actual Average (KDTO) Record (KDTO)
Temperature  
Mean Temperature 63 °F -  
Max Temperature 73 °F 73 °F 93 °F (2003)
Min Temperature 52 °F 51 °F 34 °F (2008)
Degree Days  
Heating Degree Days 2    
Growing Degree Days 13 (Base 50)    
Moisture  
Dew Point 44 °F    
Average Humidity 50    
Maximum Humidity 66    
Minimum Humidity 39    
Precipitation  
Precipitation 0.00 in - - ()
Sea Level Pressure  
Sea Level Pressure 30.19 in    
Wind  
Wind Speed 8 mph (ENE)    
Max Wind Speed 14 mph    
Max Gust Speed 20 mph    
Visibility 10 miles    
Events      
Averages and records for this station are not official NWS values.
T = Trace of Precipitation, MM = Missing Value Source: NWS Daily Summary

Daily Weather History Graph

Daily Weather History Graph

Search for Another Location

Airport:

Trip Planner

Search our weather history database for the weather conditions in past years. The results will help you decide how hot, cold, wet, or windy it might be!

Date:

Astronomy

Oct. 24, 2013 Rise Set
Actual Time 7:42 AM CDT 6:46 PM CDT
Civil Twilight 7:16 AM CDT 7:11 PM CDT
Nautical Twilight 6:47 AM CDT 7:40 PM CDT
Astronomical Twilight 6:19 AM CDT 8:09 PM CDT
Moon 11:17 PM CDT (10/24) 12:37 PM CDT (10/24)
Length of Visible Light 11h 54m
Length of Day
11h 04m
Waning Gibbous, 71% of the Moon is Illuminated
Oct 24
Waning Gibbous
Oct 26
Last Quarter
Nov 3
New
Nov 9
First Quarter
Nov 17
Full

Hourly Weather History & Observations

Time (CDT) Temp. Dew Point Humidity Pressure Visibility Wind Dir Wind Speed Gust Speed Precip Events Conditions
12:15 AM 65.1 °F 41.4 °F 42% 30.07 in 10.0 mi SW 8.1 mph - N/A   Clear
12:35 AM 65.3 °F 41.4 °F 42% 30.07 in 10.0 mi SW 8.1 mph - N/A   Clear
12:55 AM 65.3 °F 41.4 °F 42% 30.07 in 10.0 mi SW 9.2 mph - N/A   Clear
1:15 AM 65.5 °F 41.0 °F 41% 30.07 in 10.0 mi SW 11.5 mph - N/A   Clear
1:35 AM 64.8 °F 41.0 °F 42% 30.07 in 10.0 mi SW 10.4 mph - N/A   Clear
1:55 AM 64.4 °F 41.0 °F 42% 30.07 in 10.0 mi SW 6.9 mph - N/A   Clear
2:15 AM 64.0 °F 40.8 °F 43% 30.08 in 10.0 mi WSW 9.2 mph - N/A   Clear
2:35 AM 62.6 °F 41.0 °F 45% 30.08 in 10.0 mi WSW 6.9 mph - N/A   Clear
2:55 AM 61.9 °F 41.2 °F 47% 30.09 in 10.0 mi WSW 6.9 mph - N/A   Clear
3:15 AM 61.7 °F 41.0 °F 47% 30.09 in 10.0 mi WSW 5.8 mph - N/A   Clear
3:35 AM 60.6 °F 41.0 °F 48% 30.10 in 10.0 mi WNW 5.8 mph - N/A   Clear
3:55 AM 59.0 °F 42.3 °F 54% 30.10 in 10.0 mi West 6.9 mph - N/A   Clear
4:15 AM 59.0 °F 42.4 °F 54% 30.12 in 10.0 mi WNW 5.8 mph - N/A   Clear
4:35 AM 57.9 °F 43.0 °F 58% 30.12 in 10.0 mi WNW 5.8 mph - N/A   Clear
4:55 AM 57.7 °F 42.8 °F 57% 30.12 in 10.0 mi WNW 6.9 mph - N/A   Clear
5:15 AM 56.7 °F 42.8 °F 60% 30.13 in 10.0 mi West 5.8 mph - N/A   Clear
5:35 AM 55.8 °F 42.8 °F 62% 30.13 in 10.0 mi West 6.9 mph - N/A   Clear
5:55 AM 56.3 °F 42.4 °F 60% 30.14 in 10.0 mi West 6.9 mph - N/A   Clear
6:15 AM 56.5 °F 42.3 °F 59% 30.14 in 10.0 mi West 8.1 mph - N/A   Clear
6:35 AM 56.5 °F 42.3 °F 59% 30.14 in 10.0 mi West 8.1 mph - N/A   Clear
6:55 AM 56.3 °F 42.6 °F 60% 30.14 in 10.0 mi West 8.1 mph - N/A   Clear
7:15 AM 55.6 °F 43.0 °F 63% 30.14 in 10.0 mi West 5.8 mph - N/A   Clear
7:35 AM 55.6 °F 43.3 °F 63% 30.15 in 10.0 mi WNW 5.8 mph - N/A   Clear
7:55 AM 54.5 °F 43.3 °F 66% 30.17 in 10.0 mi WNW 3.5 mph - N/A   Clear
8:15 AM 54.9 °F 43.5 °F 66% 30.17 in 10.0 mi WNW 3.5 mph - N/A   Clear
8:35 AM 56.3 °F 42.8 °F 61% 30.19 in 10.0 mi WNW 3.5 mph - N/A   Clear
8:55 AM 57.6 °F 42.8 °F 58% 30.20 in 10.0 mi Calm Calm - N/A   Clear
9:15 AM 59.0 °F 43.2 °F 56% 30.21 in 10.0 mi North 4.6 mph - N/A   Clear
9:35 AM 62.1 °F 44.1 °F 52% 30.21 in 10.0 mi NE 8.1 mph - N/A   Clear
9:55 AM 64.0 °F 46.4 °F 53% 30.21 in 10.0 mi ENE 6.9 mph - N/A   Clear
10:15 AM 66.0 °F 47.5 °F 51% 30.22 in 10.0 mi ENE 8.1 mph - N/A   Clear
10:35 AM 67.1 °F 48.2 °F 51% 30.23 in 10.0 mi East 8.1 mph - N/A   Clear
10:55 AM 68.2 °F 48.4 °F 49% 30.23 in 10.0 mi ENE 8.1 mph - N/A   Clear
11:15 AM 68.4 °F 48.9 °F 50% 30.24 in 10.0 mi East 8.1 mph - N/A   Clear
11:35 AM 68.7 °F 48.2 °F 48% 30.24 in 10.0 mi ENE 11.5 mph - N/A   Clear
11:55 AM 69.8 °F 47.7 °F 45% 30.25 in 10.0 mi East 10.4 mph 16.1 mph N/A   Clear
12:15 PM 70.7 °F 46.9 °F 43% 30.24 in 10.0 mi ENE 10.4 mph 17.3 mph N/A   Clear
12:35 PM 72.1 °F 46.8 °F 40% 30.24 in 10.0 mi ESE 12.7 mph 17.3 mph N/A   Clear
12:55 PM 72.1 °F 47.3 °F 41% 30.24 in 10.0 mi East 9.2 mph - N/A   Clear
1:15 PM 70.5 °F 47.3 °F 44% 30.24 in 10.0 mi East 10.4 mph - N/A   Clear
1:35 PM 72.5 °F 48.2 °F 42% 30.23 in 10.0 mi ENE 9.2 mph - N/A   Clear
1:55 PM 73.0 °F 47.5 °F 40% 30.22 in 10.0 mi ENE 9.2 mph - N/A   Clear
2:15 PM 73.0 °F 47.1 °F 40% 30.21 in 10.0 mi NE 9.2 mph - N/A   Clear
2:35 PM 72.7 °F 46.9 °F 40% 30.21 in 10.0 mi East 10.4 mph - N/A   Clear
2:55 PM 72.5 °F 46.8 °F 40% 30.21 in 10.0 mi East 11.5 mph - N/A   Clear
3:15 PM 71.8 °F 46.4 °F 40% 30.21 in 10.0 mi East 10.4 mph 17.3 mph N/A   Clear
3:35 PM 72.1 °F 46.4 °F 40% 30.21 in 10.0 mi NE 10.4 mph 17.3 mph N/A   Clear
3:55 PM 71.6 °F 45.7 °F 39% 30.21 in 10.0 mi East 10.4 mph - N/A   Clear
4:15 PM 70.2 °F 45.1 °F 41% 30.21 in 10.0 mi East 9.2 mph - N/A   Clear
4:35 PM 71.1 °F 45.7 °F 40% 30.21 in 10.0 mi ENE 12.7 mph - N/A   Clear
4:55 PM 70.9 °F 45.7 °F 40% 30.21 in 10.0 mi ENE 12.7 mph 18.4 mph N/A   Clear
5:15 PM 70.0 °F 45.0 °F 41% 30.21 in 10.0 mi East 11.5 mph - N/A   Clear
5:35 PM 69.3 °F 45.1 °F 42% 30.21 in 10.0 mi ENE 10.4 mph - N/A   Clear
5:55 PM 68.4 °F 45.5 °F 44% 30.21 in 10.0 mi East 10.4 mph - N/A   Clear
6:15 PM 67.3 °F 45.5 °F 45% 30.21 in 10.0 mi East 9.2 mph - N/A   Clear
6:35 PM 65.7 °F 45.5 °F 48% 30.22 in 10.0 mi ENE 10.4 mph - N/A   Clear
6:55 PM 64.0 °F 44.4 °F 49% 30.22 in 10.0 mi ENE 10.4 mph - N/A   Clear
7:15 PM 62.6 °F 43.7 °F 50% 30.22 in 10.0 mi ENE 10.4 mph - N/A   Clear
7:35 PM 61.3 °F 43.0 °F 51% 30.23 in 10.0 mi ENE 9.2 mph - N/A   Clear
7:55 PM 60.6 °F 42.1 °F 50% 30.24 in 10.0 mi ENE 10.4 mph - N/A   Clear
8:15 PM 59.9 °F 41.4 °F 50% 30.24 in 10.0 mi ENE 9.2 mph - N/A   Clear
8:35 PM 59.4 °F 41.0 °F 51% 30.25 in 10.0 mi East 12.7 mph - N/A   Clear
8:55 PM 58.6 °F 40.8 °F 52% 30.25 in 10.0 mi ENE 12.7 mph - N/A   Clear
9:15 PM 57.6 °F 40.3 °F 53% 30.26 in 10.0 mi ENE 12.7 mph - N/A   Clear
9:35 PM 56.8 °F 40.3 °F 54% 30.27 in 10.0 mi ENE 11.5 mph 17.3 mph N/A   Clear
9:55 PM 56.3 °F 39.6 °F 53% 30.27 in 10.0 mi ENE 13.8 mph - N/A   Clear
10:15 PM 55.6 °F 39.2 °F 54% 30.28 in 10.0 mi ENE 12.7 mph 19.6 mph N/A   Clear
10:35 PM 54.7 °F 39.2 °F 56% 30.28 in 10.0 mi ENE 11.5 mph 17.3 mph N/A   Clear
10:55 PM 54.0 °F 38.8 °F 57% 30.29 in 10.0 mi ENE 10.4 mph - N/A   Clear
11:15 PM 53.6 °F 38.5 °F 57% 30.29 in 10.0 mi East 11.5 mph 16.1 mph N/A   Clear
11:35 PM 53.1 °F 38.3 °F 57% 30.29 in 10.0 mi East 11.5 mph - N/A   Clear
11:55 PM 52.2 °F 37.9 °F 58% 30.30 in 10.0 mi East 11.5 mph - N/A   Clear